Погода в Луговом

Россия / Ивановская область     57°25′03″N   42°13′34″E
темп.,
°C
ветер,
м/с
пор.,
м/с
влажн.,
%
обл.,
%
осадки,
мм/ч
давл.,
гПа
погр.,
м
7 мая, пт
пт700:00+11юз51278100 0.1 1006837
03:00+9зюз3689100 0.4 1007347
06:00+8юз3787100 0.0 1008394
09:00+9зюз4571100 0.0 1009978
12:00+11зюз4653100 0.1 10091671
15:00+12з684536 0.1 10102199
18:00+11зюз575731 0.1 1012940
21:00+6ююз22720 0.1 101415
8 мая, сб
сб800:00+5ю34809 0.0 101563
03:00+4ююв357977 0.0 101592
06:00+6ююв397599 0.0 1015237
09:00+13ююв6105045 0.0 10141463
12:00+13ююв61153100 0.0 10111825
15:00+13юв71360100 0.1 10091503
18:00+11ююв61372100 0.6 10071423
21:00+9ююв61591100 3.9 10051102
9 мая, вс
вс900:00+10ю51395100 1.4 1004802
03:00+8юз71289100 1.6 1005890
06:00+9ю4996100 1.2 1004593
09:00+4з61095100 1.6 1008561
12:00+5з61188100 0.1 10131011
15:00+8зсз5970100 0.1 10171303
18:00+8сз3768100 0.0 1019929
21:00+4з22825 0.0 102218
10 мая, пн
пн1000:00+3зсз24851 0.0 102471
03:00+2зсз22860 0.0 102733
06:00+5з12775 0.0 102987
09:00+11зюз23495 0.0 1030642
12:00+14зюз34407 0.0 10291701
15:00+15з454185 0.0 10291862
18:00+14зюз35555 0.0 1029431
21:00+9юз227420 0.0 103035
11 мая, вт
вт1100:00+7юз2277100 0.0 103118
03:00+6юз2383100 0.0 103238
06:00+8юз258097 0.0 1033136
09:00+14юз3459100 0.0 1033499
12:00+17юз345194 0.0 10321016
15:00+19зюз334933 0.0 10311366
18:00+18юз236117 0.0 1030138
21:00+12ююз227836 0.0 103011